Worcester, MA

1:30 AM EDT on October 19, 2017 (GMT -0400)
Worcester Regional

Weather History for KORH - August, 2012

Change the Weather History Date:

Tuesday, August 7, 2012

  Actual Average Record
Temperature  
Mean Temperature 72 °F 70 °F  
Max Temperature 81 °F 79 °F 94 °F (1924)
Min Temperature 63 °F 62 °F 47 °F (1943)
Degree Days  
Heating Degree Days 0 0  
Month to date heating degree days 0 0  
Since 1 June heating degree days 84 97  
Since 1 July heating degree days 2 14  
Cooling Degree Days 7 5  
Month to date cooling degree days 73 41  
Year to date cooling degree days 485 322  
Since 1 June cooling degree days 424 300  
Growing Degree Days 22 (Base 50)    
Moisture  
Dew Point 58 °F    
Average Humidity 66    
Maximum Humidity 87    
Minimum Humidity 45    
Precipitation  
Precipitation 0.00 in 0.13 in 2.04 in (1978)
Month to date precipitation 0.52 0.94  
Year to date precipitation 22.44 28.59  
Snow  
Snow 0.00 in 0.00 in 0.00 in (2002)
Month to date snowfall 0.0 0.0  
Since 1 June snowfall 0.0 0.0  
Since 1 July snowfall 0.0 0.0  
Snow Depth 0.00 in    
Sea Level Pressure  
Sea Level Pressure 30.01 in    
Wind  
Wind Speed 6 mph (West)    
Max Wind Speed 10 mph    
Max Gust Speed 17 mph    
Visibility 10 miles    
Events      
T = Trace of Precipitation, MM = Missing Value Source: NWS Daily Summary

Daily Weather History Graph

Daily Weather History Graph

Search for Another Location

Airport or City:

Trip Planner

Search our weather history database for the weather conditions in past years. The results will help you decide how hot, cold, wet, or windy it might be!

Date:

Astronomy

Aug. 07, 2012 Rise Set
Actual Time 5:46 AM EDT 7:58 PM EDT
Civil Twilight 5:15 AM EDT 8:29 PM EDT
Nautical Twilight 4:37 AM EDT 9:07 PM EDT
Astronomical Twilight 3:55 AM EDT 9:49 PM EDT
Moon 10:28 PM EDT (8/7) 11:40 AM EDT (8/7)
Length of Visible Light 15h 13m
Length of Day
14h 11m
Waning Gibbous, 70% of the Moon is Illuminated
Aug 7
Waning Gibbous
Aug 9
Last Quarter
Aug 17
New
Aug 24
First Quarter
Aug 31
Full

Hourly Weather History & Observations

Time (EDT) Temp. Heat Index Dew Point Humidity Pressure Visibility Wind Dir Wind Speed Gust Speed Precip Events Conditions
12:54 AM 64.9 °F - 55.9 °F 73% 30.01 in 10.0 mi WNW 9.2 mph - N/A   Clear
1:54 AM 64.0 °F - 55.9 °F 75% 30.01 in 10.0 mi WNW 9.2 mph - N/A   Clear
2:54 AM 63.0 °F - 55.9 °F 78% 30.00 in 10.0 mi NW 8.1 mph - N/A   Clear
3:54 AM 63.0 °F - 55.9 °F 78% 30.00 in 10.0 mi NW 8.1 mph - N/A   Clear
4:54 AM 64.0 °F - 55.0 °F 73% 30.01 in 10.0 mi North 5.8 mph - N/A   Clear
5:54 AM 64.0 °F - 55.0 °F 73% 30.02 in 10.0 mi NNE 5.8 mph - N/A   Clear
6:54 AM 64.9 °F - 55.9 °F 73% 30.02 in 10.0 mi NNE 6.9 mph - N/A   Clear
7:54 AM 66.9 °F - 57.0 °F 70% 30.03 in 10.0 mi NE 3.5 mph - N/A   Clear
8:54 AM 68.0 °F - 57.0 °F 68% 30.03 in 10.0 mi SE 3.5 mph - N/A   Clear
9:54 AM 71.1 °F - 57.9 °F 63% 30.03 in 10.0 mi Calm Calm - N/A   Clear
10:54 AM 73.9 °F - 59.0 °F 59% 30.03 in 10.0 mi Variable 4.6 mph - N/A   Clear
11:54 AM 75.9 °F - 57.9 °F 54% 30.03 in 10.0 mi SSW 3.5 mph - N/A   Clear
12:54 PM 77.0 °F - 57.9 °F 52% 30.01 in 10.0 mi Variable 5.8 mph - N/A   Clear
1:54 PM 78.1 °F - 59.0 °F 52% 30.00 in 10.0 mi Variable 5.8 mph - N/A   Clear
2:54 PM 80.1 °F 80.9 °F 60.1 °F 50% 29.99 in 10.0 mi SSW 8.1 mph - N/A   Partly Cloudy
3:54 PM 80.1 °F 80.6 °F 57.9 °F 47% 29.99 in 10.0 mi Variable 5.8 mph - N/A   Clear
4:54 PM 80.1 °F 80.7 °F 59.0 °F 48% 29.98 in 10.0 mi WSW 9.2 mph - N/A   Clear
5:54 PM 79.0 °F - 57.9 °F 48% 29.98 in 10.0 mi SW 8.1 mph - N/A   Clear
6:54 PM 75.9 °F - 59.0 °F 56% 29.98 in 10.0 mi WSW 4.6 mph - N/A   Clear
7:54 PM 73.0 °F - 63.0 °F 71% 29.98 in 10.0 mi SSW 8.1 mph - N/A   Clear
8:54 PM 71.1 °F - 62.1 °F 73% 29.99 in 10.0 mi SSW 9.2 mph - N/A   Clear
9:54 PM 68.0 °F - 61.0 °F 78% 30.00 in 10.0 mi SW 8.1 mph - N/A   Clear
10:54 PM 66.9 °F - 61.0 °F 81% 30.01 in 10.0 mi WSW 9.2 mph - N/A   Clear
11:54 PM 64.9 °F - 60.1 °F 84% 30.02 in 10.0 mi West 8.1 mph - N/A   Clear